Southampton, United Kingdom

5:05 AM BST on May 29, 2017 (GMT +0100)
Southampton International

Weather History for EGHI - October, 2013

Change the Weather History Date:

Thursday, October 3, 2013

  Actual Average Record
Temperature  
Mean Temperature 64 °F -  
Max Temperature 68 °F 56 °F 71 °F (2011)
Min Temperature 59 °F 44 °F 33 °F (2016)
Degree Days  
Heating Degree Days 2    
Growing Degree Days 14 (Base 50)    
Moisture  
Dew Point 59 °F    
Average Humidity 89    
Maximum Humidity 94    
Minimum Humidity 78    
Precipitation  
Precipitation 0.00 in - - ()
Sea Level Pressure  
Sea Level Pressure 29.72 in    
Wind  
Wind Speed 6 mph ()    
Max Wind Speed 13 mph    
Max Gust Speed 28 mph    
Visibility 5.2 miles    
Events Rain    
Averages and records for this station are not official NWS values.
T = Trace of Precipitation, MM = Missing Value Source: Averaged Metar Reports

Daily Weather History Graph

Daily Weather History Graph

Search for Another Location

Airport or City:

Trip Planner

Search our weather history database for the weather conditions in past years. The results will help you decide how hot, cold, wet, or windy it might be!

Date:

Astronomy

Oct. 03, 2013 Rise Set
Actual Time 7:09 AM BST 6:38 PM BST
Civil Twilight 6:36 AM BST 7:11 PM BST
Nautical Twilight 5:58 AM BST 7:49 PM BST
Astronomical Twilight 5:19 AM BST 8:28 PM BST
Moon 5:20 AM BST (10/3) 5:43 PM BST (10/3)
Length of Visible Light 12h 35m
Length of Day
11h 29m
Waning Crescent, 3% of the Moon is Illuminated
Oct 3
Waning Crescent
Oct 5
New
Oct 12
First Quarter
Oct 19
Full
Oct 27
Last Quarter

Hourly Weather History & Observations

Time (BST) Temp. Dew Point Humidity Pressure Visibility Wind Dir Wind Speed Gust Speed Precip Events Conditions
5:50 AM 59.0 °F 57.2 °F 94% 29.80 in 2.5 mi East 3.5 mph - N/A   Mostly Cloudy
6:20 AM 59.0 °F 57.2 °F 94% 29.80 in 2.5 mi East 5.8 mph - N/A   Mostly Cloudy
6:50 AM 60.8 °F 59.0 °F 94% 29.77 in 1.9 mi East 6.9 mph - N/A   Mostly Cloudy
7:20 AM 60.8 °F 59.0 °F 94% 29.77 in 1.9 mi East 9.2 mph - N/A   Mostly Cloudy
7:50 AM 60.8 °F 59.0 °F 94% 29.77 in 2.2 mi East 8.1 mph - N/A   Mostly Cloudy
8:20 AM 60.8 °F 57.2 °F 88% 29.77 in 2.2 mi East 8.1 mph - N/A   Mostly Cloudy
8:50 AM 60.8 °F 57.2 °F 88% 29.74 in 4.3 mi ESE 6.9 mph - N/A   Scattered Clouds
9:20 AM 60.8 °F 57.2 °F 88% 29.74 in 4.3 mi East 6.9 mph - N/A   Scattered Clouds
9:50 AM 60.8 °F 59.0 °F 94% 29.74 in 4.3 mi East 9.2 mph - N/A   Scattered Clouds
10:20 AM 60.8 °F 59.0 °F 94% 29.74 in 6.2 mi East 9.2 mph - N/A   Mostly Cloudy
10:50 AM 62.6 °F 59.0 °F 88% 29.71 in 6.2 mi East 12.7 mph - N/A   Mostly Cloudy
11:20 AM 60.8 °F 57.2 °F 88% 29.74 in 5.0 mi SE 11.5 mph - N/A Rain Light Rain
11:50 AM 60.8 °F 57.2 °F 88% 29.68 in 5.0 mi ESE 12.7 mph 27.6 mph N/A Rain Light Rain
12:20 PM 60.8 °F 59.0 °F 94% 29.65 in 6.2 mi ESE 11.5 mph - N/A   Light Drizzle
12:50 PM 60.8 °F 59.0 °F 94% 29.68 in 6.2 mi SE 10.4 mph 27.6 mph N/A   Mostly Cloudy
1:20 PM 62.6 °F 60.8 °F 94% 29.68 in 6.2 mi SE 6.9 mph 18.4 mph N/A   Mostly Cloudy
1:50 PM 64.4 °F 59.0 °F 83% 29.68 in 6.2 mi SE 6.9 mph 18.4 mph N/A   Mostly Cloudy
2:20 PM 64.4 °F 59.0 °F 83% 29.71 in 6.2 mi SSE 8.1 mph 21.9 mph N/A   Mostly Cloudy
2:50 PM 64.4 °F 59.0 °F 83% 29.68 in 6.2 mi SSE 8.1 mph 24.2 mph N/A   Mostly Cloudy
3:20 PM 64.4 °F 60.8 °F 88% 29.71 in 6.2 mi SSE 8.1 mph 20.7 mph N/A   Mostly Cloudy
3:50 PM 64.4 °F 60.8 °F 88% 29.68 in 6.2 mi SSE 5.8 mph 17.3 mph N/A   Mostly Cloudy
4:20 PM 66.2 °F 60.8 °F 83% 29.71 in 6.2 mi SSE 6.9 mph 23.0 mph N/A   Mostly Cloudy
4:50 PM 68.0 °F 60.8 °F 78% 29.68 in 6.2 mi SSE 4.6 mph 16.1 mph N/A   Mostly Cloudy
5:20 PM 66.2 °F 60.8 °F 83% 29.71 in 6.2 mi SSE 5.8 mph - N/A   Mostly Cloudy
5:50 PM 66.2 °F 60.8 °F 83% 29.71 in 6.2 mi Variable 2.3 mph - N/A   Mostly Cloudy
6:20 PM 66.2 °F 60.8 °F 83% 29.71 in 6.2 mi Variable 2.3 mph - N/A   Scattered Clouds
6:50 PM 64.4 °F 60.8 °F 88% 29.71 in 6.2 mi East 3.5 mph - N/A   Scattered Clouds
7:20 PM 64.4 °F 60.8 °F 88% 29.71 in 6.2 mi East 3.5 mph - N/A   Mostly Cloudy
7:50 PM 62.6 °F 60.8 °F 94% 29.71 in 3.7 mi East 4.6 mph - N/A   Scattered Clouds
8:20 PM 62.6 °F 59.0 °F 88% 29.71 in 6.2 mi ESE 4.6 mph - N/A   Scattered Clouds
8:50 PM 62.6 °F 60.8 °F 94% 29.74 in 6.2 mi ESE 4.6 mph - N/A   Scattered Clouds
9:20 PM 62.6 °F 59.0 °F 88% 29.74 in 6.2 mi Calm Calm - N/A   Scattered Clouds
9:50 PM 62.6 °F 59.0 °F 88% 29.71 in 6.2 mi East 3.5 mph - N/A   Scattered Clouds
10:20 PM 60.8 °F 59.0 °F 94% 29.71 in 6.2 mi East 3.5 mph - N/A   Partly Cloudy